Regional Weather Roundup
Issued by NWS

Home | Current Version | Previous Version | Graphics & Text | Print | Product List | Glossary On
Versions: 1 2 3 4 5 6 7 8 9 10 11 12 13 14 15 16 17 18 19 20 21 22 23 24 25 26 27 28 29 30 31 32 33 34 35 36 37 38 39 40 41 42 43 44 45 46 47 48 49 50
000
ASUS45 KSLC 070910
RWRUT

UTAH REGIONAL WEATHER ROUNDUP
NATIONAL WEATHER SERVICE SALT LAKE CITY UT
200 AM MST WED DEC 07 2016

UTZ001>011-023>025-071000-

NORTHERN UTAH

CITY           SKY/WX    TMP DP  RH WIND       PRES   REMARKS
BRIGHAM CITY     N/A     23  11  61 CALM      30.06R
HILL AFB       CLOUDY    20  11  67 N7        30.02R WCI  12
LOGAN          MOCLDY    19  15  84 N7        30.04R WCI  10
OGDEN          MOCLDY    22  13  68 NW9       30.03R WCI  12
SALT LAKE CITY CLOUDY    25  17  72 N13       30.04R WCI  14
TOOELE VALLEY  CLOUDY    25  18  74 NW5       30.05R WCI  19
WENDOVER       MOCLDY    25  10  54 CALM      30.07R
HEBER CITY     CLOUDY    12   5  73 SE3       29.94R
WEST JORDAN    MOCLDY    22  20  91 NW5       30.04R WCI  16

$$

UTZ011>015-024>027-071000-

CENTRAL/NORTHEAST UTAH

CITY           SKY/WX    TMP DP  RH WIND       PRES   REMARKS
PROVO AIRPORT  CLOUDY    26  17  68 SW9       30.03R WCI  17
MOAB/CANYONLAN CLOUDY    32   6  33 W14       29.94R WCI  22
DELTA          CLEAR     18   9  68 CALM      30.04R
PRICE          CLEAR     20   6  55 NW9       29.93R WCI   9
RICHFIELD      PTCLDY    25  10  54 W7        30.02R WCI  17
ROOSEVELT      CLEAR     19   0  42 CALM      29.97R
VERNAL         CLEAR     15   4  61 NW6       29.94R WCI   6

$$

UTZ013>016-019>022-027-071000-

SOUTHERN UTAH

CITY           SKY/WX    TMP DP  RH WIND       PRES   REMARKS
BRYCE CANYON   NOT AVBL
CEDAR CITY     CLEAR     19  10  68 CALM      29.98R
MILFORD        CLEAR     16   7  67 S3        30.01R
ST GEORGE      MOSUNNY   36  12  38 S6        29.99R WCI  31
HANKSVILLE     PTCLDY    28  12  50 CALM      30.00R
KANAB          CLEAR     28  16  59 NE5       29.98R WCI  23
BLANDING       MOCLDY    28  14  57 NW21G29   29.96R WCI  14

$$

REGIONAL REPORTS     COLORADO/ARIZONA

CITY           SKY/WX    TMP DP  RH WIND       PRES   REMARKS
CRAIG, CO      CLOUDY    11   6  81 SW6       29.90R WCI   1
GRAND JUNCTION CLOUDY    25  24  96 NE6       29.94R WCI  18
RIFLE, CO      CLOUDY    22  19  89 W9        29.91R WCI  12
MONTROSE, CO   LGT SNOW  24  22  91 SW3       29.95R FOG
CORTEZ, CO     FLURRIES  29  15  56 NW12G21   29.90R WCI  19
COLORADO CITY    N/A     32  14  47 NW7       29.96R WCI  26
PAGE, AZ       CLOUDY    40   8  26 NW7       29.92R
GRAND CANYON   CLOUDY    33  32  96 SW9       29.94R WCI  25
KINGMAN, AZ    CLEAR     40  27  59 SE12      29.92R WCI  33
FLAGSTAFF, AZ  CLEAR     30  28  92 SW15G26   29.92R WCI  19

$$

REGIONAL REPORTS    NEVADA/IDAHO/WYOMING

CITY           SKY/WX    TMP DP  RH WIND       PRES   REMARKS
LAS VEGAS, NV  PTCLDY    48  13  24 N15       29.94R
ELY, NY        CLEAR      3  -1  83 S7        30.00R WCI  -9
ELKO, NV       CLOUDY    21  13  71 NE7       30.06R WCI  12
POCATELLO, ID  LGT SNOW  18  15  88 W7        30.09R WCI   9
BURLEY, ID     CLOUDY    19  16  88 W8        30.10R WCI   9
FORT BRIDGER,  PTSUNNY   10   4  78 W13       29.90R WCI  -6
EVANSTON, WY   CLOUDY     6   0  76 W7        29.88R WCI  -6
ROCK SPRINGS,  LGT SNOW   7   4  87 E6        29.88R FOG     WCI  -3

$$



USA.gov is the U.S. government's official web portal to all federal, state and local government web resources and services.